Location: Lombard
(41.8800°N, 88.0080°W)
Time: 13:38:51
(UTC-05:00)

A-11 Canister half - Pass Details

Date: 04 February 2023
Orbit: 1512 x 1687 km, 47.2° (Epoch: 20 March)

Event Time Altitude Azimuth Distance (km) Brightness Sun altitude
Rises 16:05:58 0° 295° (WNW) 4,735 12.0 9.9°
Reaches altitude 10° 16:09:04 10° 295° (WNW) 3,730 11.6 9.5°
Maximum altitude 16:18:25 77° 211° (SSW) 1,553 9.4 8.0°
Drops below altitude 10° 16:27:36 10° 127° (SE) 3,663 10.8 6.5°
Sets 16:30:37 0° 126° (SE) 4,647 11.3 6.0°
